[[{"header":{"parameterUnit":"m.s-1","parameterCategory":1,"la1":30.2991,"la2":30.254,"lo1":-89.0895,"lo2":-89.0444,"dy":0.0017,"dx":0.0017,"nx":28,"ny":28,"refTime":"2025-01-24T03:00:00:Z","depth":0,"parameterNumber":2,"parameterNumberName":"U-component_of_WINDS"},"data":[0,0,0,0,0,0,0,0,0,0,0,0,0,0,0,0,0,0,0,0,0,0,0,0,0,0,0,0,0,0,0,0,0,0,0,0,0,0,0,0,0,0,0,0,0,0,0,0,0,0,0,0,0,0,0,0,0,0,1.3563,1.3563,0,1.3566,1.3566,1.3566,1.3528,1.3527,1.3526,1.3525,1.3527,1.3528,1.3529,0,0,0,0,0,0,0,0,0,0,0,0,0,1.3525,1.3526,1.3563,1.3563,1.3563,1.3566,1.3566,1.3566,1.3528,1.3527,1.3525,1.3524,1.3526,1.3528,1.3529,0,0,0,0,0,0,0,0,0,0,0,0,0,1.3536,1.3527,1.3563,1.3545,1.3543,1.3566,1.3566,1.3566,1.3528,1.3527,1.3525,1.3524,1.3526,1.3528,1.3529,1.357,0,0,1.3534,1.3534,0,0,0,0,0,0,0,0,1.3536,1.3538,1.3547,1.3546,1.3544,1.3545,1.3553,1.3567,1.3529,1.3534,1.3525,1.3523,1.3534,1.3535,1.3539,1.357,1.357,1.3534,1.3535,1.3535,1.3536,0,0,0,0,0,0,0,1.3535,1.3537,1.3564,1.3548,1.3546,1.3536,1.3536,1.3556,1.3543,1.3533,1.3531,1.3531,1.3533,1.3537,1.3539,1.357,1.3534,1.3535,1.3536,1.3537,1.3637,1.3639,0,0,0,0,0,0,1.3537,1.3537,1.3564,1.3564,1.3536,1.3538,1.3538,1.3546,1.3542,1.354,1.3533,1.353,1.3536,1.3537,1.3538,1.3587,1.3535,1.3537,1.3538,1.3635,1.3637,1.3639,0,0,0,0,0,0,1.3536,1.354,1.3564,1.355,1.3552,1.3541,1.355,1.3547,1.3552,1.3542,1.3539,1.354,1.3534,1.3536,1.3563,1.3587,1.3538,1.3539,1.3633,1.3636,1.3638,1.3685,0,0,0,0,0,0,1.3535,1.354,1.3555,1.3551,1.3553,1.3589,1.3552,1.3548,1.3555,1.3551,1.3548,1.3546,1.3533,1.3561,1.3564,1.3588,1.354,1.3631,1.3635,1.3638,1.3681,1.3689,1.3695,0,0,0,0,0,1.3534,1.3567,1.3556,1.3559,1.3572,1.359,1.3591,1.3576,1.3557,1.3572,1.3566,1.3546,1.3584,1.3564,1.3568,1.3592,1.363,1.3634,1.3637,1.3678,1.3687,1.3695,0,0,0,0,0,0,1.3573,1.3566,1.3553,1.3586,1.3589,1.3583,1.3602,1.3586,1.3595,1.3591,1.3571,1.3571,1.3601,1.3599,1.3577,1.3632,1.3603,1.3608,1.3633,1.3641,1.3648,1.3648,1.3541,0,0,0,0,0,1.3586,1.3601,1.3594,1.3623,1.3625,1.3614,1.3621,1.3609,1.3612,1.3613,1.3608,1.3611,1.3624,1.3632,1.3643,1.3681,1.368,1.37,1.3707,1.3712,1.3717,1.3738,1.3747,1.3652,1.3652,1.3652,0,0,1.3611,1.3609,1.362,1.3631,1.3632,1.3649,1.3615,1.3633,1.3646,1.3615,1.364,1.3638,1.364,1.3673,1.3687,1.3672,1.3743,1.3717,1.3722,1.3723,1.3743,1.3752,1.376,1.3655,1.3654,1.3654,0,0,1.3667,1.3666,1.3692,1.3694,1.3697,1.3689,1.3695,1.3693,1.369,1.3715,1.3693,1.3708,1.3729,1.3732,1.3737,1.3796,1.3779,1.38,1.3837,1.3858,1.3866,1.3872,1.3895,1.3903,1.3805,1.3805,1.3805,0,1.3698,1.3722,1.3707,1.3728,1.3734,1.3708,1.3734,1.3737,1.3743,1.3748,1.3731,1.3759,1.3758,1.3792,1.3807,1.3811,1.3818,1.38,1.3866,1.3872,1.3878,1.3899,1.3908,1.3808,1.3807,1.3807,1.3807,0,1.3762,1.3779,1.3799,1.3807,1.3815,1.3839,1.3827,1.3838,1.3826,1.3821,1.3848,1.3846,1.3857,1.3865,1.3853,1.3897,1.3888,1.3869,1.3839,1.389,1.391,1.3918,1.3811,1.381,1.381,1.3809,0,0,1.384,1.3841,1.3849,1.3853,1.3855,1.3868,1.3891,1.3902,1.3912,1.3918,1.3937,1.3957,1.394,1.3945,1.3934,1.3952,1.4001,1.3931,1.393,1.3945,1.4052,1.4067,1.4076,1.399,1.3991,1.3992,1.4052,0,1.3895,1.3935,1.3922,1.3962,1.3979,1.3956,1.3976,1.398,1.3976,1.3989,1.3985,1.4,1.3975,1.3979,1.3996,1.3992,1.4022,1.3987,1.4008,1.4009,1.4008,1.4086,1.4102,1.4158,1.406,1.4061,1.4062,0,1.3964,1.3974,1.4016,1.4017,1.4024,1.4042,1.4053,1.4066,1.407,1.4066,1.4073,1.4059,1.4082,1.4052,1.4084,1.4061,1.4069,1.4068,1.407,1.4071,1.4038,1.4091,1.4176,1.4185,1.4073,1.4072,1.4072,0,1.4019,1.4042,1.4071,1.4075,1.4077,1.409,1.4092,1.4095,1.4103,1.4113,1.4118,1.413,1.4137,1.4147,1.4136,1.4115,1.417,1.4139,1.4168,1.4168,1.418,1.418,1.4269,1.4185,1.4185,1.4185,1.4184,0,1.4082,1.4108,1.4096,1.4113,1.4143,1.4129,1.4159,1.4158,1.4161,1.4179,1.4159,1.4176,1.4161,1.4176,1.4168,1.4197,1.4199,1.4197,1.4195,1.4199,1.42,1.4204,1.42,1.4187,1.4186,1.4186,1.4186,0,1.4147,1.414,1.417,1.417,1.4171,1.4193,1.4193,1.421,1.4205,1.4228,1.4232,1.4225,1.4242,1.4233,1.425,1.4245,1.4282,1.4274,1.4281,1.4279,1.4309,1.4307,1.4404,1.4416,1.4324,1.4325,1.4326,0,1.4188,1.4209,1.4212,1.4222,1.4226,1.4243,1.4252,1.424,1.425,1.4258,1.4274,1.429,1.4302,1.4331,1.4328,1.4342,1.4334,1.4367,1.4336,1.434,1.4336,1.4335,1.4337,1.4374,1.4375,1.4376,1.4376,0,1.4262,1.4258,1.4272,1.4286,1.4298,1.4308,1.4316,1.4326,1.4314,1.4327,1.4345,1.4355,1.4374,1.4391,1.4403,1.4404,1.4389,1.4386,1.4394,1.4399,1.4402,1.4402,1.4299,1.4384,1.4383,1.4383,1.4382,1.4382,1.4317,1.4335,1.434,1.4358,1.4363,1.4372,1.4388,1.4386,1.4402,1.4417,1.4409,1.4431,1.4436,1.4451,1.4455,1.4472,1.4459,1.4469,1.4472,1.4475,1.448,1.44,1.4474,1.4474,1.4474,1.4474,1.4473,0,1.439,1.4393,1.4409,1.4423,1.4437,1.4422,1.4431,1.4443,1.4463,1.447,1.4483,1.4505,1.4522,1.452,1.4535,1.455,1.4543,1.4554,1.4553,1.4554,1.449,1.4483,1.4559,1.4559,1.4559,1.4559,1.4559,1.4559,1.443,1.446,1.4457,1.449,1.4493,1.4515,1.4522,1.453,1.4536,1.4562,1.4576,1.4575,1.4579,1.4595,1.4609,1.4609,1.4615,1.463,1.4626,1.4567,1.4558,1.455,1.4543,1.4631,1.4631,1.4688,1.4689,1.4689]},{"header":{"parameterUnit":"m.s-1","parameterCategory":1,"la1":30.2991,"la2":30.254,"lo1":-89.0895,"lo2":-89.0444,"dy":0.0017,"dx":0.0017,"nx":28,"ny":28,"refTime":"2025-01-24T03:00:00:Z","depth":0,"parameterNumber":3,"parameterNumberName":"V-component_of_WINDS"},"data":[0,0,0,0,0,0,0,0,0,0,0,0,0,0,0,0,0,0,0,0,0,0,0,0,0,0,0,0,0,0,0,0,0,0,0,0,0,0,0,0,0,0,0,0,0,0,0,0,0,0,0,0,0,0,0,0,0,0,-2.5497,-2.5498,0,-2.5594,-2.5595,-2.5596,-2.557,-2.5568,-2.5566,-2.5564,-2.5663,-2.5667,-2.5672,0,0,0,0,0,0,0,0,0,0,0,0,0,-2.5289,-2.5293,-2.5497,-2.5498,-2.5499,-2.5594,-2.5595,-2.5596,-2.5571,-2.5568,-2.5566,-2.5564,-2.5661,-2.5667,-2.5672,0,0,0,0,0,0,0,0,0,0,0,0,0,-2.5382,-2.5295,-2.5497,-2.5498,-2.5499,-2.5593,-2.5595,-2.5597,-2.5571,-2.5568,-2.5565,-2.5562,-2.566,-2.5666,-2.5673,-2.5772,0,0,-2.5693,-2.5696,0,0,0,0,0,0,0,0,-2.5377,-2.539,-2.5496,-2.5498,-2.5499,-2.5567,-2.5558,-2.5655,-2.5572,-2.5544,-2.5564,-2.5561,-2.5633,-2.5642,-2.5666,-2.5776,-2.578,-2.5693,-2.5698,-2.57,-2.5702,0,0,0,0,0,0,0,-2.5371,-2.5385,-2.5535,-2.5498,-2.55,-2.5493,-2.5503,-2.5576,-2.5603,-2.5546,-2.5544,-2.5556,-2.5633,-2.566,-2.5668,-2.5782,-2.5693,-2.5699,-2.5703,-2.5706,-2.5979,-2.5982,0,0,0,0,0,0,-2.5363,-2.538,-2.5532,-2.5538,-2.543,-2.55,-2.5511,-2.5548,-2.5603,-2.5608,-2.5558,-2.5554,-2.565,-2.5661,-2.5672,-2.5792,-2.57,-2.5707,-2.571,-2.5975,-2.5979,-2.5983,0,0,0,0,0,0,-2.5359,-2.5377,-2.5528,-2.5459,-2.5478,-2.5506,-2.5548,-2.5552,-2.5578,-2.5612,-2.5617,-2.5581,-2.5648,-2.5662,-2.5747,-2.5795,-2.5709,-2.5716,-2.5972,-2.5977,-2.5981,-2.6033,0,0,0,0,0,0,-2.5353,-2.5375,-2.5413,-2.546,-2.5481,-2.5602,-2.5551,-2.5556,-2.559,-2.5585,-2.5634,-2.5639,-2.5647,-2.5737,-2.5754,-2.5803,-2.5721,-2.5967,-2.5974,-2.598,-2.6027,-2.6039,-2.6049,0,0,0,0,0,-2.5346,-2.5423,-2.5415,-2.5434,-2.5529,-2.5605,-2.5617,-2.5625,-2.5594,-2.5632,-2.5654,-2.5638,-2.5787,-2.5746,-2.5765,-2.5816,-2.5964,-2.5972,-2.5979,-2.6022,-2.6036,-2.6048,0,0,0,0,0,0,-2.5381,-2.543,-2.5421,-2.5516,-2.5557,-2.56,-2.5649,-2.564,-2.5689,-2.5683,-2.569,-2.5701,-2.5788,-2.581,-2.5764,-2.5915,-2.5871,-2.5883,-2.5897,-2.5911,-2.5922,-2.5915,-2.5726,0,0,0,0,0,-2.54,-2.5458,-2.5497,-2.5577,-2.5598,-2.562,-2.5653,-2.5656,-2.5698,-2.5714,-2.5743,-2.5784,-2.584,-2.5877,-2.593,-2.603,-2.604,-2.6074,-2.6085,-2.6094,-2.6104,-2.6159,-2.6175,-2.6007,-2.6007,-2.6007,0,0,-2.544,-2.5474,-2.5509,-2.5585,-2.5617,-2.5676,-2.5635,-2.5699,-2.5743,-2.5724,-2.5806,-2.5828,-2.5875,-2.5968,-2.601,-2.5989,-2.6153,-2.6103,-2.611,-2.6115,-2.6168,-2.6184,-2.6198,-2.6012,-2.6011,-2.601,0,0,-2.5543,-2.5574,-2.5645,-2.5678,-2.5726,-2.5741,-2.5758,-2.5803,-2.5817,-2.59,-2.5887,-2.594,-2.6036,-2.607,-2.61,-2.6217,-2.6205,-2.6234,-2.6292,-2.6346,-2.6359,-2.6371,-2.6413,-2.6428,-2.6244,-2.6244,-2.6244,0,-2.5586,-2.5676,-2.5682,-2.5749,-2.5783,-2.5769,-2.5841,-2.5872,-2.5935,-2.5959,-2.5935,-2.6056,-2.6086,-2.6188,-2.6216,-2.6241,-2.6261,-2.6229,-2.6357,-2.6368,-2.638,-2.642,-2.6436,-2.6247,-2.6247,-2.6247,-2.6246,0,-2.5727,-2.5789,-2.5841,-2.5903,-2.5943,-2.6011,-2.6029,-2.6068,-2.6067,-2.6084,-2.6169,-2.6205,-2.6266,-2.629,-2.6289,-2.6391,-2.6377,-2.6355,-2.6311,-2.6399,-2.6437,-2.6453,-2.6252,-2.6251,-2.625,-2.6249,0,0,-2.5855,-2.5921,-2.594,-2.5968,-2.6021,-2.607,-2.6138,-2.6198,-2.6232,-2.6276,-2.6334,-2.6417,-2.6397,-2.6431,-2.6434,-2.6481,-2.6573,-2.6453,-2.6454,-2.6475,-2.6688,-2.6705,-2.6723,-2.6564,-2.6567,-2.657,-2.6685,0,-2.5963,-2.6084,-2.6092,-2.6201,-2.6259,-2.6247,-2.6307,-2.6346,-2.6364,-2.6415,-2.6435,-2.6494,-2.6462,-2.6483,-2.6529,-2.6552,-2.6616,-2.6543,-2.6619,-2.6621,-2.6608,-2.6743,-2.6761,-2.6868,-2.67,-2.6702,-2.6704,0,-2.6106,-2.6155,-2.627,-2.6316,-2.6341,-2.6394,-2.645,-2.65,-2.6544,-2.6554,-2.6593,-2.6589,-2.666,-2.6613,-2.6711,-2.6662,-2.6693,-2.6709,-2.6713,-2.6721,-2.6668,-2.6755,-2.6902,-2.6918,-2.6728,-2.6726,-2.6724,0,-2.6189,-2.6284,-2.6365,-2.639,-2.6445,-2.6483,-2.6508,-2.6549,-2.6585,-2.6635,-2.6658,-2.6715,-2.6746,-2.679,-2.6802,-2.6767,-2.69,-2.6854,-2.691,-2.691,-2.6939,-2.6937,-2.7094,-2.6958,-2.6958,-2.6958,-2.6957,0,-2.6309,-2.638,-2.6404,-2.6454,-2.6533,-2.6542,-2.6621,-2.6643,-2.668,-2.6735,-2.6727,-2.6778,-2.6791,-2.6845,-2.6855,-2.6935,-2.6949,-2.6959,-2.6961,-2.696,-2.6959,-2.6981,-2.6974,-2.6962,-2.6961,-2.696,-2.6959,0,-2.6415,-2.6434,-2.6522,-2.6567,-2.658,-2.6637,-2.6676,-2.6724,-2.6741,-2.681,-2.6827,-2.6854,-2.6917,-2.6934,-2.7009,-2.7016,-2.711,-2.7104,-2.7095,-2.7095,-2.7151,-2.7146,-2.7328,-2.7353,-2.72,-2.7201,-2.7203,0,-2.6491,-2.6546,-2.6597,-2.6634,-2.666,-2.6718,-2.6755,-2.6766,-2.6805,-2.686,-2.6902,-2.6964,-2.7015,-2.7116,-2.7142,-2.72,-2.7197,-2.7256,-2.7205,-2.7203,-2.7199,-2.7196,-2.7202,-2.7266,-2.7268,-2.7269,-2.727,0,-2.6625,-2.6631,-2.6685,-2.6743,-2.6787,-2.6833,-2.6876,-2.6906,-2.6923,-2.6967,-2.7032,-2.7071,-2.7149,-2.7211,-2.7269,-2.7295,-2.7286,-2.7286,-2.7302,-2.7303,-2.7296,-2.7301,-2.7123,-2.7282,-2.7281,-2.728,-2.7279,-2.7279,-2.6719,-2.6767,-2.6811,-2.6872,-2.6906,-2.6947,-2.6995,-2.7018,-2.7073,-2.7137,-2.714,-2.721,-2.7254,-2.7332,-2.7361,-2.7416,-2.7398,-2.7422,-2.7428,-2.7434,-2.7439,-2.7286,-2.7427,-2.7426,-2.7426,-2.7426,-2.7426,0,-2.6853,-2.6881,-2.6936,-2.6998,-2.7046,-2.7033,-2.7081,-2.7122,-2.7184,-2.7225,-2.7276,-2.735,-2.7411,-2.7442,-2.7502,-2.7541,-2.7539,-2.7557,-2.7554,-2.7561,-2.7451,-2.7431,-2.7558,-2.7558,-2.7558,-2.7558,-2.7557,-2.7557,-2.6928,-2.701,-2.7022,-2.712,-2.7147,-2.7217,-2.7245,-2.7284,-2.7317,-2.7401,-2.7452,-2.7472,-2.7509,-2.7572,-2.7628,-2.7635,-2.7658,-2.7679,-2.7684,-2.7581,-2.7568,-2.7555,-2.7537,-2.7683,-2.7683,-2.7789,-2.779,-2.7791]}]]